• în România
  • Lista ţărilor
  • Pe 7 zile
  • Temperatura apei
  • Hartă satelitară
  • Meteo pe hartă
  • Widget-uri
  • user-avatar
    Intrare

    Meteo pe oră la Bucureşti

    Astăzi, 25 Iunie, Luni

    Timp Temperatura Precipitaţii Vânt Presiune Umiditate
    00:00 +18°C° 0 mm 2 m/s 756 mmHg 54%
    01:00 +17°C° 0 mm 2 m/s 756 mmHg 56%
    02:00 +17°C° 0 mm 2 m/s 756 mmHg 58%
    03:00 +16°C° 0 mm 2 m/s 756 mmHg 60%
    04:00 +16°C° 0 mm 1 m/s 756 mmHg 61%
    05:00 +15°C° 0 mm 1 m/s 756 mmHg 63%
    06:00 +18°C° 0 mm 1 m/s 756 mmHg 58%
    07:00 +20°C° 0 mm 1 m/s 756 mmHg 54%
    08:00 +21°C° 0 mm 1 m/s 756 mmHg 48%
    09:00 +23°C° 0 mm 1 m/s 756 mmHg 43%
    10:00 +25°C° 0 mm 1 m/s 756 mmHg 38%
    11:00 +26°C° 0 mm 1 m/s 756 mmHg 34%
    12:00 +27°C° 0 mm 1 m/s 756 mmHg 32%
    13:00 +28°C° 0 mm 1 m/s 756 mmHg 31%
    14:00 +28°C° 0 mm 1 m/s 756 mmHg 29%
    15:00 +28°C° 0 mm 1 m/s 755 mmHg 30%
    16:00 +28°C° 0 mm 2 m/s 755 mmHg 31%
    17:00 +27°C° 0 mm 2 m/s 755 mmHg 31%
    18:00 +26°C° 0 mm 2 m/s 755 mmHg 37%
    19:00 +25°C° 0 mm 3 m/s 755 mmHg 42%
    20:00 +22°C° 0 mm 3 m/s 755 mmHg 47%
    21:00 +21°C° 0 mm 3 m/s 756 mmHg 52%
    22:00 +20°C° 0 mm 3 m/s 756 mmHg 56%
    23:00 +19°C° 0 mm 3 m/s 756 mmHg 60%

    Mâine, 26 Iunie, Marţi

    Timp Temperatura Precipitaţii Vânt Presiune Umiditate
    00:00 +18°C° 0 mm 3 m/s 756 mmHg 63%
    01:00 +18°C° 0 mm 2 m/s 756 mmHg 66%
    02:00 +17°C° 0 mm 2 m/s 756 mmHg 69%
    03:00 +17°C° 0 mm 2 m/s 756 mmHg 70%
    04:00 +16°C° 0 mm 2 m/s 755 mmHg 71%
    05:00 +16°C° 0 mm 2 m/s 755 mmHg 71%
    06:00 +18°C° 0 mm 3 m/s 755 mmHg 64%
    07:00 +20°C° 0 mm 4 m/s 755 mmHg 56%
    08:00 +22°C° 0 mm 4 m/s 755 mmHg 48%
    09:00 +25°C° 0 mm 5 m/s 755 mmHg 44%
    10:00 +26°C° 0 mm 5 m/s 755 mmHg 40%
    11:00 +28°C° 0 mm 5 m/s 754 mmHg 37%
    12:00 +28°C° 0 mm 5 m/s 754 mmHg 38%
    13:00 +28°C° 0 mm 5 m/s 754 mmHg 39%
    14:00 +29°C° 0 mm 5 m/s 753 mmHg 41%
    15:00 +28°C° 0,1 mm 5 m/s 753 mmHg 45%
    16:00 +27°C° 0,1 mm 5 m/s 753 mmHg 49%
    17:00 +27°C° 0,1 mm 5 m/s 752 mmHg 53%
    18:00 +26°C° 0,3 mm 5 m/s 752 mmHg 57%
    19:00 +25°C° 0,3 mm 4 m/s 752 mmHg 61%
    20:00 +24°C° 0,3 mm 3 m/s 752 mmHg 64%
    21:00 +22°C° 0,1 mm 3 m/s 752 mmHg 64%
    22:00 +22°C° 0,1 mm 3 m/s 752 mmHg 64%
    23:00 +21°C° 0,1 mm 4 m/s 752 mmHg 64%

    Poimâine, 27 Iunie, Miercuri

    Timp Temperatura Precipitaţii Vânt Presiune Umiditate
    00:00 +21°C° 0,1 mm 4 m/s 752 mmHg 64%
    01:00 +21°C° 0,1 mm 4 m/s 752 mmHg 63%
    02:00 +20°C° 0,1 mm 4 m/s 752 mmHg 63%
    03:00 +20°C° 0,3 mm 5 m/s 751 mmHg 67%
    04:00 +19°C° 0,3 mm 5 m/s 751 mmHg 71%
    05:00 +19°C° 0,3 mm 5 m/s 751 mmHg 75%
    06:00 +19°C° 2,4 mm 6 m/s 751 mmHg 78%
    07:00 +17°C° 2,4 mm 6 m/s 750 mmHg 82%
    08:00 +17°C° 2,4 mm 6 m/s 750 mmHg 85%
    09:00 +17°C° 2,2 mm 6 m/s 750 mmHg 85%
    10:00 +17°C° 2,2 mm 6 m/s 750 mmHg 85%
    11:00 +17°C° 2,2 mm 5 m/s 749 mmHg 86%
    12:00 +19°C° 0,3 mm 5 m/s 749 mmHg 84%
    13:00 +20°C° 0,3 mm 5 m/s 749 mmHg 83%
    14:00 +21°C° 0,3 mm 5 m/s 748 mmHg 82%
    15:00 +22°C° 0,2 mm 4 m/s 748 mmHg 79%
    16:00 +24°C° 0,2 mm 3 m/s 747 mmHg 76%
    17:00 +25°C° 0,2 mm 2 m/s 747 mmHg 72%
    18:00 +24°C° 0,6 mm 2 m/s 747 mmHg 77%
    19:00 +23°C° 0,6 mm 2 m/s 747 mmHg 82%
    20:00 +21°C° 0,6 mm 2 m/s 747 mmHg 86%
    21:00 +20°C° 0,7 mm 2 m/s 748 mmHg 88%
    22:00 +20°C° 0,7 mm 2 m/s 748 mmHg 90%
    23:00 +19°C° 0,7 mm 2 m/s 748 mmHg 91%

    28 Iunie, Joi

    Timp Temperatura Precipitaţii Vânt Presiune Umiditate
    00:00 +19°C° 0 mm 2 m/s 748 mmHg 91%
    01:00 +19°C° 0 mm 2 m/s 748 mmHg 91%
    02:00 +19°C° 0 mm 1 m/s 748 mmHg 91%
    03:00 +19°C° 0,3 mm 1 m/s 748 mmHg 91%
    04:00 +18°C° 0,3 mm 2 m/s 748 mmHg 92%
    05:00 +18°C° 0,3 mm 2 m/s 748 mmHg 92%
    06:00 +19°C° 1,3 mm 2 m/s 748 mmHg 91%
    07:00 +19°C° 1,3 mm 2 m/s 748 mmHg 90%
    08:00 +20°C° 1,3 mm 2 m/s 749 mmHg 88%
    09:00 +23°C° 0,3 mm 2 m/s 749 mmHg 82%
    10:00 +24°C° 0,3 mm 3 m/s 748 mmHg 75%
    11:00 +26°C° 0,3 mm 4 m/s 748 mmHg 68%
    12:00 +26°C° 0,8 mm 4 m/s 748 mmHg 67%
    13:00 +27°C° 0,8 mm 4 m/s 748 mmHg 65%
    14:00 +27°C° 0,8 mm 4 m/s 748 mmHg 64%
    15:00 +27°C° 0,8 mm 4 m/s 747 mmHg 65%
    16:00 +27°C° 0,8 mm 4 m/s 747 mmHg 66%
    17:00 +27°C° 0,8 mm 4 m/s 747 mmHg 67%
    18:00 +26°C° 1,8 mm 3 m/s 747 mmHg 72%
    19:00 +25°C° 1,8 mm 3 m/s 747 mmHg 78%
    20:00 +24°C° 1,8 mm 2 m/s 747 mmHg 83%
    21:00 +23°C° 1,3 mm 2 m/s 747 mmHg 84%
    22:00 +23°C° 1,3 mm 1 m/s 747 mmHg 86%
    23:00 +22°C° 1,3 mm 1 m/s 747 mmHg 87%

    29 Iunie, Vineri

    Timp Temperatura Precipitaţii Vânt Presiune Umiditate
    00:00 +22°C° 0,9 mm 1 m/s 747 mmHg 88%
    01:00 +22°C° 0,9 mm 1 m/s 747 mmHg 89%
    02:00 +20°C° 0,9 mm 2 m/s 747 mmHg 90%
    03:00 +20°C° 1 mm 2 m/s 747 mmHg 91%
    04:00 +19°C° 1 mm 2 m/s 747 mmHg 92%
    05:00 +19°C° 1 mm 2 m/s 747 mmHg 93%
    06:00 +20°C° 0,5 mm 2 m/s 747 mmHg 90%
    07:00 +21°C° 0,5 mm 2 m/s 747 mmHg 87%
    08:00 +23°C° 0,5 mm 2 m/s 747 mmHg 84%
    09:00 +24°C° 0,2 mm 2 m/s 747 mmHg 78%
    10:00 +25°C° 0,2 mm 2 m/s 747 mmHg 73%
    11:00 +26°C° 0,2 mm 2 m/s 747 mmHg 68%
    12:00 +27°C° 0,2 mm 2 m/s 747 mmHg 63%
    13:00 +28°C° 0,2 mm 2 m/s 747 mmHg 57%
    14:00 +29°C° 0,2 mm 2 m/s 747 mmHg 52%
    15:00 +29°C° 0,2 mm 2 m/s 747 mmHg 51%
    16:00 +29°C° 0,2 mm 2 m/s 747 mmHg 50%
    17:00 +29°C° 0,2 mm 2 m/s 747 mmHg 49%
    18:00 +28°C° 0,1 mm 2 m/s 747 mmHg 56%
    19:00 +26°C° 0,1 mm 2 m/s 747 mmHg 62%
    20:00 +25°C° 0,1 mm 2 m/s 747 mmHg 68%
    21:00 +24°C° 0,6 mm 2 m/s 747 mmHg 73%
    22:00 +23°C° 0,6 mm 2 m/s 747 mmHg 77%
    23:00 +21°C° 0,6 mm 2 m/s 748 mmHg 82%

    30 Iunie, Sâmbătă

    Timp Temperatura Precipitaţii Vânt Presiune Umiditate
    00:00 +21°C° 0,1 mm 2 m/s 748 mmHg 83%
    01:00 +20°C° 0,1 mm 2 m/s 748 mmHg 85%
    02:00 +20°C° 0,1 mm 2 m/s 747 mmHg 87%
    03:00 +20°C° 0,1 mm 2 m/s 748 mmHg 87%
    04:00 +19°C° 0,1 mm 2 m/s 748 mmHg 88%
    05:00 +20°C° 0,1 mm 1 m/s 748 mmHg 89%
    06:00 +20°C° 0,1 mm 2 m/s 748 mmHg 84%
    07:00 +23°C° 0,1 mm 2 m/s 748 mmHg 80%
    08:00 +24°C° 0,1 mm 2 m/s 749 mmHg 75%
    09:00 +25°C° 0,5 mm 2 m/s 749 mmHg 70%
    10:00 +27°C° 0,5 mm 2 m/s 749 mmHg 64%
    11:00 +28°C° 0,5 mm 2 m/s 749 mmHg 59%
    12:00 +29°C° 0,1 mm 2 m/s 749 mmHg 55%
    13:00 +30°C° 0,1 mm 2 m/s 748 mmHg 50%
    14:00 +31°C° 0,1 mm 2 m/s 748 mmHg 46%
    15:00 +31°C° 0 mm 2 m/s 748 mmHg 47%
    16:00 +31°C° 0 mm 2 m/s 748 mmHg 47%
    17:00 +31°C° 0 mm 2 m/s 749 mmHg 47%
    18:00 +29°C° 0,1 mm 2 m/s 749 mmHg 53%
    19:00 +28°C° 0,1 mm 2 m/s 749 mmHg 58%
    20:00 +26°C° 0,1 mm 2 m/s 749 mmHg 64%
    21:00 +25°C° 0,4 mm 2 m/s 750 mmHg 67%
    22:00 +24°C° 0,4 mm 2 m/s 750 mmHg 70%
    23:00 +24°C° 0,4 mm 2 m/s 751 mmHg 73%
    Arată mai mult